| time (UTC) | temp F | wind direction | speed knots | gust knots | rain 1hr in | rain 24hr in | rain mn in | humidity % | barometer mb |
| 20260906231021 | 98 | 96 | 6.1 | 7.8 | 0.00 | 0.00 | 0.00 | 35 | 1010.8 |
| 20260906230519 | 98 | 95 | 2.6 | 9.6 | 0.00 | 0.00 | 0.00 | 35 | 1011.0 |
| 20260906230019 | 98 | 160 | 0.0 | 5.2 | 0.00 | 0.00 | 0.00 | 35 | 1011.0 |
| 20260906225513 | 98 | 78 | 7.8 | 10.4 | 0.00 | 0.00 | 0.00 | 35 | 1011.1 |
| 20260906225009 | 98 | 96 | 1.7 | 5.2 | 0.00 | 0.00 | 0.00 | 36 | 1010.9 |
| 20260906224505 | 98 | 95 | 5.2 | 7.0 | 0.00 | 0.00 | 0.00 | 35 | 1011.1 |
| 20260906224001 | 99 | 109 | 6.1 | 7.8 | 0.00 | 0.00 | 0.00 | 34 | 1010.9 |
| 20260906223457 | 99 | 88 | 3.5 | 6.1 | 0.00 | 0.00 | 0.00 | 35 | 1011.0 |
| 20260906222955 | 98 | 87 | 3.5 | 7.8 | 0.00 | 0.00 | 0.00 | 35 | 1011.1 |
| 20260906222450 | 99 | 114 | 3.5 | 6.1 | 0.00 | 0.00 | 0.00 | 35 | 1011.0 |
| 20260906221947 | 100 | 101 | 4.3 | 6.1 | 0.00 | 0.00 | 0.00 | 35 | 1011.3 |
| 20260906221446 | 100 | 100 | 4.3 | 7.8 | 0.00 | 0.00 | 0.00 | 34 | 1011.0 |
| 20260906220942 | 100 | 78 | 1.7 | 3.5 | 0.00 | 0.00 | 0.00 | 35 | 1011.0 |
| 20260906220437 | 101 | 105 | 2.6 | 3.5 | 0.00 | 0.00 | 0.00 | 34 | 1011.0 |
| 20260906215937 | 100 | 132 | 0.0 | 5.2 | 0.00 | 0.00 | 0.00 | 34 | 1011.1 |
| 20260906215437 | 100 | 88 | 2.6 | 6.1 | 0.00 | 0.00 | 0.00 | 35 | 1011.2 |
| 20260906214934 | 100 | 210 | 0.9 | 7.8 | 0.00 | 0.00 | 0.00 | 35 | 1010.9 |
| 20260906214429 | 99 | 104 | 2.6 | 7.8 | 0.00 | 0.00 | 0.00 | 36 | 1011.2 |
| 20260906213928 | 99 | 109 | 3.5 | 4.3 | 0.00 | 0.00 | 0.00 | 36 | 1011.2 |
| 20260906213422 | 98 | 124 | 5.2 | 7.0 | 0.00 | 0.00 | 0.00 | 37 | 1011.1 |
| 20260906212919 | 98 | 85 | 7.0 | 7.8 | 0.00 | 0.00 | 0.00 | 36 | 1011.6 |
| 20260906212415 | 100 | 98 | 4.3 | 8.7 | 0.00 | 0.00 | 0.00 | 35 | 1011.3 |
| 20260906211915 | 99 | 120 | 1.7 | 8.7 | 0.00 | 0.00 | 0.00 | 35 | 1011.6 |
| 20260906211411 | 99 | 122 | 4.3 | 7.8 | 0.00 | 0.00 | 0.00 | 36 | 1011.7 |
| 20260906210910 | 99 | 104 | 4.3 | 11.3 | 0.00 | 0.00 | 0.00 | 36 | 1011.9 |
| 20260906210407 | 99 | 124 | 6.1 | 11.3 | 0.00 | 0.00 | 0.00 | 36 | 1011.7 |
| 20260906205901 | 101 | 88 | 4.3 | 9.6 | 0.00 | 0.00 | 0.00 | 36 | 1012.1 |
| 20260906205357 | 100 | 226 | 2.6 | 4.3 | 0.00 | 0.00 | 0.00 | 36 | 1011.9 |
| 20260906204853 | 101 | 166 | 3.5 | 6.1 | 0.00 | 0.00 | 0.00 | 36 | 1011.9 |
| 20260906204351 | 100 | 193 | 2.6 | 5.2 | 0.00 | 0.00 | 0.00 | 37 | 1012.0 |
| 20260906203851 | 100 | 103 | 2.6 | 4.3 | 0.00 | 0.00 | 0.00 | 36 | 1012.2 |
| 20260906203347 | 99 | 130 | 6.1 | 7.0 | 0.00 | 0.00 | 0.00 | 36 | 1012.2 |
| 20260906202844 | 98 | 93 | 3.5 | 11.3 | 0.00 | 0.00 | 0.00 | 38 | 1012.3 |
| 20260906202338 | 99 | 118 | 2.6 | 7.8 | 0.00 | 0.00 | 0.00 | 38 | 1012.6 |
| 20260906201837 | 99 | 79 | 6.1 | 11.3 | 0.00 | 0.00 | 0.00 | 37 | 1012.4 |
| 20260906201333 | 100 | 234 | 4.3 | 7.8 | 0.00 | 0.00 | 0.00 | 37 | 1012.3 |
| 20260906200828 | 99 | 271 | 1.7 | 6.1 | 0.00 | 0.00 | 0.00 | 39 | 1012.5 |
| 20260906200324 | 98 | 87 | 7.0 | 11.3 | 0.00 | 0.00 | 0.00 | 38 | 1012.5 |
| 20260906195818 | 98 | 91 | 3.5 | 6.1 | 0.00 | 0.00 | 0.00 | 38 | 1012.8 |
| 20260906195315 | 100 | 89 | 6.1 | 7.8 | 0.00 | 0.00 | 0.00 | 37 | 1012.7 |
| 20260906194810 | 99 | 223 | 5.2 | 6.1 | 0.00 | 0.00 | 0.00 | 39 | 1012.9 |
| 20260906194301 | 99 | 85 | 7.8 | 8.7 | 0.00 | 0.00 | 0.00 | 39 | 1012.8 |
| 20260906193800 | 97 | 79 | 2.6 | 7.0 | 0.00 | 0.00 | 0.00 | 41 | 1012.9 |
| 20260906193255 | 96 | 120 | 4.3 | 8.7 | 0.00 | 0.00 | 0.00 | 41 | 1012.8 |
| 20260906192751 | 98 | 96 | 4.3 | 10.4 | 0.00 | 0.00 | 0.00 | 40 | 1012.8 |
| 20260906192245 | 97 | 87 | 2.6 | 6.1 | 0.00 | 0.00 | 0.00 | 40 | 1012.9 |
| 20260906191745 | 97 | 66 | 1.7 | 8.7 | 0.00 | 0.00 | 0.00 | 40 | 1013.2 |
| 20260906191240 | 98 | 92 | 6.1 | 10.4 | 0.00 | 0.00 | 0.00 | 39 | 1013.1 |
| 20260906190739 | 99 | 94 | 4.3 | 13.0 | 0.00 | 0.00 | 0.00 | 38 | 1013.1 |
| 20260906190234 | 98 | 91 | 3.5 | 8.7 | 0.00 | 0.00 | 0.00 | 38 | 1013.1 |
| 20260906185733 | 97 | 128 | 4.3 | 8.7 | 0.00 | 0.00 | 0.00 | 40 | 1013.0 |
| 20260906185233 | 96 | 88 | 4.3 | 5.2 | 0.00 | 0.00 | 0.00 | 41 | 1013.3 |
| 20260906184733 | 96 | 116 | 6.1 | 8.7 | 0.00 | 0.00 | 0.00 | 41 | 1013.3 |
| 20260906184228 | 96 | 187 | 7.8 | 11.3 | 0.00 | 0.00 | 0.00 | 40 | 1013.3 |
| 20260906183724 | 97 | 113 | 4.3 | 10.4 | 0.00 | 0.00 | 0.00 | 42 | 1013.4 |
| 20260906183220 | 98 | 88 | 4.3 | 7.0 | 0.00 | 0.00 | 0.00 | 40 | 1013.6 |
| 20260906182720 | 97 | 80 | 2.6 | 6.1 | 0.00 | 0.00 | 0.00 | 41 | 1013.6 |
| 20260906182216 | 97 | 109 | 5.2 | 8.7 | 0.00 | 0.00 | 0.00 | 42 | 1013.5 |
| 20260906181711 | 96 | 134 | 2.6 | 7.8 | 0.00 | 0.00 | 0.00 | 42 | 1013.5 |
| 20260906181208 | 95 | 73 | 4.3 | 7.8 | 0.00 | 0.00 | 0.00 | 43 | 1013.6 |
| 20260906180701 | 97 | 68 | 6.1 | 9.6 | 0.00 | 0.00 | 0.00 | 41 | 1013.9 |
| 20260906180156 | 96 | 61 | 5.2 | 10.4 | 0.00 | 0.00 | 0.00 | 41 | 1014.1 |
| 20260906175654 | 97 | 102 | 7.0 | 11.3 | 0.00 | 0.00 | 0.00 | 40 | 1013.9 |
| 20260906175149 | 97 | 129 | 5.2 | 7.8 | 0.00 | 0.00 | 0.00 | 41 | 1014.1 |
| 20260906174648 | 97 | 88 | 3.5 | 8.7 | 0.00 | 0.00 | 0.00 | 42 | 1014.2 |
| 20260906174143 | 97 | 103 | 7.8 | 9.6 | 0.00 | 0.00 | 0.00 | 41 | 1014.3 |
| 20260906173638 | 96 | 109 | 5.2 | 9.6 | 0.00 | 0.00 | 0.00 | 42 | 1014.5 |
| 20260906173134 | 97 | 101 | 4.3 | 12.2 | 0.00 | 0.00 | 0.00 | 41 | 1014.5 |
| 20260906172627 | 96 | 114 | 1.7 | 6.1 | 0.00 | 0.00 | 0.00 | 44 | 1014.6 |
| 20260906172123 | 97 | 209 | 1.7 | 6.1 | 0.00 | 0.00 | 0.00 | 43 | 1014.5 |
| 20260906171622 | 96 | 138 | 3.5 | 10.4 | 0.00 | 0.00 | 0.00 | 43 | 1014.6 |
| 20260906171119 | 96 | 81 | 2.6 | 7.0 | 0.00 | 0.00 | 0.00 | 43 | 1014.5 |
| 20260906170615 | 95 | 119 | 6.1 | 7.8 | 0.00 | 0.00 | 0.00 | 45 | 1014.6 |
| 20260906170114 | 96 | 83 | 4.3 | 5.2 | 0.00 | 0.00 | 0.00 | 45 | 1014.6 |
| 20260906165610 | 96 | 205 | 1.7 | 7.8 | 0.00 | 0.00 | 0.00 | 45 | 1014.7 |
| 20260906165105 | 95 | 172 | 2.6 | 6.1 | 0.00 | 0.00 | 0.00 | 44 | 1014.7 |
| 20260906164604 | 95 | 188 | 2.6 | 4.3 | 0.00 | 0.00 | 0.00 | 45 | 1014.9 |
| 20260906164100 | 95 | 87 | 2.6 | 7.8 | 0.00 | 0.00 | 0.00 | 45 | 1014.7 |
| 20260906163555 | 95 | 128 | 5.2 | 7.8 | 0.00 | 0.00 | 0.00 | 44 | 1014.7 |
| 20260906163051 | 95 | 133 | 4.3 | 4.3 | 0.00 | 0.00 | 0.00 | 46 | 1014.8 |
| 20260906162549 | 95 | 108 | 3.5 | 7.8 | 0.00 | 0.00 | 0.00 | 46 | 1014.8 |
| 20260906162043 | 95 | 86 | 4.3 | 5.2 | 0.00 | 0.00 | 0.00 | 46 | 1014.7 |
| 20260906161538 | 94 | 104 | 5.2 | 6.1 | 0.00 | 0.00 | 0.00 | 46 | 1014.7 |
| 20260906161037 | 95 | 215 | 2.6 | 5.2 | 0.00 | 0.00 | 0.00 | 45 | 1014.6 |
| 20260906160536 | 94 | 113 | 3.5 | 6.1 | 0.00 | 0.00 | 0.00 | 47 | 1014.6 |
| 20260906160035 | 94 | 117 | 4.3 | 7.8 | 0.00 | 0.00 | 0.00 | 46 | 1014.6 |
| 20260906155532 | 94 | 69 | 3.5 | 5.2 | 0.00 | 0.00 | 0.00 | 48 | 1014.5 |
| 20260906155028 | 93 | 140 | 2.6 | 5.2 | 0.00 | 0.00 | 0.00 | 48 | 1014.5 |
| 20260906154523 | 93 | 81 | 4.3 | 7.8 | 0.00 | 0.00 | 0.00 | 48 | 1014.5 |
| 20260906154022 | 93 | 73 | 7.0 | 7.8 | 0.00 | 0.00 | 0.00 | 49 | 1014.6 |
| 20260906153521 | 93 | 78 | 4.3 | 7.8 | 0.00 | 0.00 | 0.00 | 49 | 1014.4 |
| 20260906153017 | 91 | 126 | 7.0 | 8.7 | 0.00 | 0.00 | 0.00 | 52 | 1014.3 |
| 20260906152511 | 91 | 19 | 4.3 | 7.0 | 0.00 | 0.00 | 0.00 | 53 | 1014.5 |
| 20260906152010 | 91 | 28 | 6.1 | 7.8 | 0.00 | 0.00 | 0.00 | 54 | 1014.5 |
| 20260906151506 | 91 | 14 | 2.6 | 5.2 | 0.00 | 0.00 | 0.00 | 56 | 1014.4 |
| 20260906151002 | 91 | 17 | 4.3 | 5.2 | 0.00 | 0.00 | 0.00 | 54 | 1014.2 |
| 20260906150457 | 90 | 37 | 2.6 | 4.3 | 0.00 | 0.00 | 0.00 | 57 | 1014.1 |
| 20260906145955 | 90 | 113 | 1.7 | 7.8 | 0.00 | 0.00 | 0.00 | 57 | 1014.1 |
| 20260906145450 | 89 | 64 | 2.6 | 3.5 | 0.00 | 0.00 | 0.00 | 59 | 1014.2 |
| 20260906144949 | 89 | 45 | 3.5 | 3.5 | 0.00 | 0.00 | 0.00 | 60 | 1014.4 |
| 20260906144445 | 90 | 94 | 4.3 | 4.3 | 0.00 | 0.00 | 0.00 | 57 | 1014.2 |
| 20260906143940 | 89 | 55 | 2.6 | 3.5 | 0.00 | 0.00 | 0.00 | 61 | 1014.2 |
| 20260906143435 | 89 | 76 | 0.9 | 2.6 | 0.00 | 0.00 | 0.00 | 61 | 1014.3 |
| 20260906142931 | 89 | 100 | 0.9 | 2.6 | 0.00 | 0.00 | 0.00 | 61 | 1014.4 |
| 20260906142430 | 88 | 200 | 2.6 | 2.6 | 0.00 | 0.00 | 0.00 | 62 | 1014.2 |
| 20260906141925 | 87 | 203 | 2.6 | 3.5 | 0.00 | 0.00 | 0.00 | 63 | 1014.3 |
| 20260906141420 | 88 | 27 | 0.9 | 2.6 | 0.00 | 0.00 | 0.00 | 63 | 1014.4 |
| 20260906140920 | 87 | 2 | 0.0 | 2.6 | 0.00 | 0.00 | 0.00 | 66 | 1014.3 |
| 20260906140414 | 87 | 132 | 2.6 | 2.6 | 0.00 | 0.00 | 0.00 | 66 | 1014.3 |
| 20260906135913 | 86 | 87 | 0.9 | 3.5 | 0.00 | 0.00 | 0.00 | 67 | 1014.3 |
| 20260906135412 | 86 | 101 | 2.6 | 2.6 | 0.00 | 0.00 | 0.00 | 67 | 1014.3 |
| 20260906134902 | 86 | 80 | 2.6 | 4.3 | 0.00 | 0.00 | 0.00 | 68 | 1014.4 |
| 20260906134358 | 84 | 183 | 0.0 | 3.5 | 0.00 | 0.00 | 0.00 | 71 | 1014.3 |
| 20260906133852 | 84 | 105 | 0.9 | 2.6 | 0.00 | 0.00 | 0.00 | 71 | 1014.3 |
| 20260906133348 | 84 | 91 | 3.5 | 4.3 | 0.00 | 0.00 | 0.00 | 72 | 1014.3 |
| 20260906132843 | 83 | 118 | 1.7 | 4.3 | 0.00 | 0.00 | 0.00 | 73 | 1014.3 |
| 20260906132338 | 83 | 85 | 2.6 | 3.5 | 0.00 | 0.00 | 0.00 | 73 | 1014.5 |
| 20260906131834 | 83 | 82 | 3.5 | 4.3 | 0.00 | 0.00 | 0.00 | 73 | 1014.4 |
| 20260906131329 | 82 | 113 | 0.9 | 2.6 | 0.00 | 0.00 | 0.00 | 75 | 1014.4 |
| 20260906130825 | 82 | 92 | 2.6 | 3.5 | 0.00 | 0.00 | 0.00 | 75 | 1014.4 |
| 20260906130325 | 81 | 124 | 0.9 | 3.5 | 0.00 | 0.00 | 0.00 | 77 | 1014.3 |
| 20260906125823 | 81 | 98 | 1.7 | 2.6 | 0.00 | 0.00 | 0.00 | 77 | 1014.1 |
| 20260906125321 | 81 | 54 | 1.7 | 2.6 | 0.00 | 0.00 | 0.00 | 78 | 1014.2 |
| 20260906124816 | 80 | 125 | 0.0 | 2.6 | 0.00 | 0.00 | 0.00 | 79 | 1014.1 |
| 20260906124312 | 79 | 237 | 0.0 | 1.7 | 0.00 | 0.00 | 0.00 | 81 | 1014.0 |
| 20260906123811 | 78 | 139 | 0.0 | 1.7 | 0.00 | 0.00 | 0.00 | 83 | 1014.0 |
| 20260906123306 | 77 | 106 | 0.9 | 1.7 | 0.00 | 0.00 | 0.00 | 85 | 1014.0 |
| 20260906122805 | 77 | 252 | 0.0 | 1.7 | 0.00 | 0.00 | 0.00 | 87 | 1013.9 |
| 20260906122300 | 76 | 284 | 0.0 | 1.7 | 0.00 | 0.00 | 0.00 | 88 | 1013.9 |
| 20260906121757 | 76 | 253 | 0.0 | 1.7 | 0.00 | 0.00 | 0.00 | 89 | 1013.7 |
| 20260906121253 | 75 | 177 | 0.0 | 0.9 | 0.00 | 0.00 | 0.00 | 88 | 1014.0 |
| 20260906120748 | 75 | 32 | 0.0 | 0.9 | 0.00 | 0.00 | 0.00 | 88 | 1013.9 |
| 20260906120245 | 76 | 352 | 0.9 | 1.7 | 0.00 | 0.00 | 0.00 | 87 | 1013.6 |
| 20260906115740 | 76 | 295 | 0.0 | 1.7 | 0.00 | 0.00 | 0.00 | 87 | 1013.8 |
| 20260906115235 | 76 | 32 | 0.9 | 1.7 | 0.00 | 0.00 | 0.00 | 87 | 1013.7 |
| 20260906114734 | 76 | 6 | 0.0 | 1.7 | 0.00 | 0.00 | 0.00 | 87 | 1013.6 |
| 20260906114230 | 76 | 106 | 0.0 | 1.7 | 0.00 | 0.00 | 0.00 | 86 | 1013.5 |
| 20260906113725 | 76 | 202 | 0.0 | 1.7 | 0.00 | 0.00 | 0.00 | 86 | 1013.4 |
| 20260906113224 | 76 | 162 | 0.9 | 1.7 | 0.00 | 0.00 | 0.00 | 86 | 1013.6 |
| 20260906112724 | 77 | 116 | 0.0 | 1.7 | 0.00 | 0.00 | 0.00 | 86 | 1013.5 |
| 20260906112221 | 76 | 116 | 0.9 | 1.7 | 0.00 | 0.00 | 0.00 | 87 | 1013.5 |
| 20260906111720 | 76 | 71 | 0.9 | 1.7 | 0.00 | 0.00 | 0.00 | 86 | 1013.5 |
| 20260906111215 | 76 | 50 | 0.0 | 1.7 | 0.00 | 0.00 | 0.00 | 86 | 1013.4 |
| 20260906110710 | 77 | 115 | 0.9 | 0.9 | 0.00 | 0.00 | 0.00 | 86 | 1013.3 |
| 20260906110206 | 77 | 182 | 0.0 | 1.7 | 0.00 | 0.00 | 0.00 | 86 | 1013.3 |
| 20260906105659 | 77 | 302 | 0.0 | 1.7 | 0.00 | 0.00 | 0.00 | 85 | 1013.1 |
| 20260906105156 | 77 | 116 | 0.0 | 0.9 | 0.00 | 0.00 | 0.00 | 85 | 1013.2 |
| 20260906104655 | 77 | 154 | 0.0 | 0.9 | 0.00 | 0.00 | 0.00 | 84 | 1013.0 |
| 20260906104149 | 77 | 326 | 0.0 | 1.7 | 0.00 | 0.00 | 0.00 | 84 | 1013.0 |
| 20260906103647 | 78 | 121 | 0.0 | 1.7 | 0.00 | 0.00 | 0.00 | 84 | 1013.1 |
| 20260906103143 | 77 | 147 | 0.0 | 1.7 | 0.00 | 0.00 | 0.00 | 84 | 1012.9 |
| 20260906102637 | 77 | 0 | 0.0 | 0.9 | 0.00 | 0.00 | 0.00 | 84 | 1013.1 |
| 20260906102132 | 78 | 105 | 0.9 | 0.9 | 0.00 | 0.00 | 0.00 | 83 | 1013.1 |
| 20260906101631 | 78 | 136 | 0.9 | 1.7 | 0.00 | 0.00 | 0.00 | 82 | 1013.0 |
| 20260906101131 | 78 | 129 | 1.7 | 1.7 | 0.00 | 0.00 | 0.00 | 83 | 1012.9 |
| 20260906100627 | 78 | 135 | 0.0 | 1.7 | 0.00 | 0.00 | 0.00 | 82 | 1012.7 |
| 20260906100122 | 78 | 208 | 0.0 | 0.9 | 0.00 | 0.00 | 0.00 | 81 | 1013.1 |
| 20260906095621 | 78 | 109 | 0.0 | 1.7 | 0.00 | 0.00 | 0.00 | 82 | 1013.0 |
| 20260906095117 | 78 | 169 | 0.0 | 1.7 | 0.00 | 0.00 | 0.00 | 83 | 1012.9 |
| 20260906094616 | 78 | 313 | 0.0 | 0.9 | 0.00 | 0.00 | 0.00 | 82 | 1013.0 |
| 20260906094112 | 78 | 40 | 0.0 | 0.9 | 0.00 | 0.00 | 0.00 | 81 | 1012.9 |
| 20260906093608 | 79 | 89 | 0.0 | 0.9 | 0.00 | 0.00 | 0.00 | 80 | 1012.9 |
| 20260906093102 | 79 | 196 | 0.0 | 0.9 | 0.00 | 0.00 | 0.00 | 80 | 1012.7 |
| 20260906092558 | 79 | 9 | 0.9 | 1.7 | 0.00 | 0.00 | 0.00 | 80 | 1012.8 |
| 20260906092053 | 79 | 337 | 0.9 | 1.7 | 0.00 | 0.00 | 0.00 | 79 | 1012.8 |
| 20260906091548 | 79 | 75 | 0.9 | 1.7 | 0.00 | 0.00 | 0.00 | 79 | 1012.9 |
| 20260906091045 | 80 | 32 | 1.7 | 2.6 | 0.00 | 0.00 | 0.00 | 78 | 1012.6 |
| 20260906090545 | 80 | 127 | 0.9 | 0.9 | 0.00 | 0.00 | 0.00 | 77 | 1012.7 |
| 20260906090040 | 80 | 174 | 0.0 | 0.9 | 0.00 | 0.00 | 0.00 | 77 | 1012.5 |
| 20260906085539 | 80 | 75 | 0.0 | 0.9 | 0.00 | 0.00 | 0.00 | 77 | 1012.7 |
| 20260906085038 | 80 | 3 | 0.0 | 1.7 | 0.00 | 0.00 | 0.00 | 76 | 1012.4 |
| 20260906084533 | 80 | 179 | 1.7 | 1.7 | 0.00 | 0.00 | 0.00 | 76 | 1012.3 |
| 20260906084032 | 81 | 170 | 0.0 | 0.9 | 0.00 | 0.00 | 0.00 | 76 | 1012.3 |
| 20260906083528 | 81 | 131 | 0.0 | 0.9 | 0.00 | 0.00 | 0.00 | 75 | 1012.4 |
| 20260906083027 | 81 | 141 | 0.0 | 1.7 | 0.00 | 0.00 | 0.00 | 75 | 1012.4 |
| 20260906082522 | 81 | 96 | 0.9 | 3.5 | 0.00 | 0.00 | 0.00 | 75 | 1012.3 |
| 20260906082018 | 80 | 235 | 0.0 | 2.6 | 0.00 | 0.00 | 0.00 | 75 | 1012.3 |
| 20260906081514 | 80 | 227 | 0.0 | 0.9 | 0.00 | 0.00 | 0.00 | 75 | 1012.2 |
| 20260906081009 | 81 | 352 | 0.0 | 0.9 | 0.00 | 0.00 | 0.00 | 74 | 1012.2 |
| 20260906080506 | 81 | 202 | 0.0 | 0.9 | 0.00 | 0.00 | 0.00 | 73 | 1012.4 |
| 20260906080000 | 81 | 326 | 0.0 | 1.7 | 0.00 | 0.00 | 0.00 | 73 | 1012.4 |
| 20260906075450 | 81 | 179 | 0.9 | 1.7 | 0.00 | 0.00 | 0.00 | 73 | 1012.4 |
| 20260906074945 | 82 | 69 | 0.0 | 1.7 | 0.00 | 0.00 | 0.00 | 72 | 1012.3 |
| 20260906074444 | 82 | 141 | 0.9 | 2.6 | 0.00 | 0.00 | 0.00 | 72 | 1012.3 |
| 20260906073943 | 82 | 141 | 0.0 | 1.7 | 0.00 | 0.00 | 0.00 | 72 | 1012.6 |
| 20260906073438 | 82 | 213 | 0.0 | 1.7 | 0.00 | 0.00 | 0.00 | 71 | 1012.5 |
| 20260906072934 | 82 | 202 | 0.9 | 2.6 | 0.00 | 0.00 | 0.00 | 71 | 1012.5 |
| 20260906072429 | 82 | 110 | 0.0 | 2.6 | 0.00 | 0.00 | 0.00 | 71 | 1012.4 |
| 20260906071925 | 82 | 31 | 0.0 | 2.6 | 0.00 | 0.00 | 0.00 | 71 | 1012.5 |
| 20260906071422 | 82 | 192 | 0.0 | 2.6 | 0.00 | 0.00 | 0.00 | 71 | 1012.6 |
| 20260906070917 | 82 | 214 | 0.9 | 3.5 | 0.00 | 0.00 | 0.00 | 70 | 1012.8 |
| 20260906070413 | 82 | 152 | 1.7 | 2.6 | 0.00 | 0.00 | 0.00 | 70 | 1012.8 |
| 20260906065908 | 82 | 127 | 0.0 | 2.6 | 0.00 | 0.00 | 0.00 | 70 | 1012.6 |
| 20260906065402 | 82 | 191 | 1.7 | 2.6 | 0.00 | 0.00 | 0.00 | 70 | 1012.8 |
| 20260906064858 | 83 | 79 | 1.7 | 2.6 | 0.00 | 0.00 | 0.00 | 70 | 1013.0 |
| 20260906064354 | 83 | 181 | 1.7 | 2.6 | 0.00 | 0.00 | 0.00 | 70 | 1012.9 |
| 20260906063848 | 83 | 183 | 1.7 | 2.6 | 0.00 | 0.00 | 0.00 | 70 | 1012.8 |
| 20260906063344 | 83 | 191 | 2.6 | 2.6 | 0.00 | 0.00 | 0.00 | 70 | 1012.7 |
| 20260906062839 | 82 | 169 | 1.7 | 2.6 | 0.00 | 0.00 | 0.00 | 70 | 1012.7 |
| 20260906062338 | 82 | 117 | 0.0 | 1.7 | 0.00 | 0.00 | 0.00 | 69 | 1012.7 |
| 20260906061833 | 83 | 252 | 0.0 | 2.6 | 0.00 | 0.00 | 0.00 | 69 | 1012.8 |
| 20260906061330 | 83 | 171 | 0.0 | 1.7 | 0.00 | 0.00 | 0.00 | 68 | 1012.5 |
| 20260906060824 | 83 | 158 | 0.0 | 0.9 | 0.00 | 0.00 | 0.00 | 68 | 1012.7 |
| 20260906060322 | 83 | 186 | 0.0 | 1.7 | 0.00 | 0.00 | 0.00 | 67 | 1012.4 |
| 20260906055817 | 83 | 151 | 0.0 | 1.7 | 0.00 | 0.00 | 0.00 | 67 | 1012.5 |
| 20260906055313 | 84 | 206 | 1.7 | 2.6 | 0.00 | 0.00 | 0.00 | 66 | 1012.6 |
| 20260906054808 | 84 | 209 | 0.0 | 2.6 | 0.00 | 0.00 | 0.00 | 66 | 1012.8 |
| 20260906054303 | 84 | 184 | 0.0 | 2.6 | 0.00 | 0.00 | 0.00 | 66 | 1012.9 |
| 20260906053800 | 84 | 141 | 0.0 | 2.6 | 0.00 | 0.00 | 0.00 | 66 | 1012.6 |
| 20260906053255 | 84 | 121 | 0.9 | 1.7 | 0.00 | 0.00 | 0.00 | 65 | 1012.9 |
| 20260906052750 | 84 | 123 | 0.0 | 2.6 | 0.00 | 0.00 | 0.00 | 65 | 1012.9 |
| 20260906052247 | 84 | 195 | 0.0 | 2.6 | 0.00 | 0.00 | 0.00 | 65 | 1013.0 |
| 20260906051743 | 84 | 230 | 0.0 | 2.6 | 0.00 | 0.00 | 0.00 | 64 | 1012.9 |
| 20260906051244 | 85 | 259 | 0.0 | 1.7 | 0.00 | 0.00 | 0.00 | 64 | 1013.2 |
| 20260906050739 | 85 | 89 | 1.7 | 2.6 | 0.00 | 0.00 | 0.00 | 64 | 1013.0 |
| 20260906050233 | 85 | 186 | 2.6 | 3.5 | 0.00 | 0.00 | 0.00 | 63 | 1012.8 |
| 20260906045732 | 85 | 148 | 0.9 | 2.6 | 0.00 | 0.00 | 0.00 | 63 | 1012.9 |
| 20260906045222 | 85 | 258 | 0.0 | 4.3 | 0.00 | 0.00 | 0.00 | 62 | 1012.9 |
| 20260906044717 | 85 | 338 | 0.9 | 1.7 | 0.00 | 0.00 | 0.00 | 62 | 1013.0 |
| 20260906044212 | 85 | 165 | 1.7 | 4.3 | 0.00 | 0.00 | 0.00 | 62 | 1012.9 |
| 20260906043708 | 85 | 158 | 1.7 | 3.5 | 0.00 | 0.00 | 0.00 | 61 | 1012.9 |
| 20260906043203 | 85 | 169 | 2.6 | 4.3 | 0.00 | 0.00 | 0.00 | 61 | 1012.9 |
| 20260906042703 | 86 | 150 | 1.7 | 2.6 | 0.00 | 0.00 | 0.00 | 61 | 1012.9 |
| 20260906042156 | 86 | 157 | 0.0 | 4.3 | 0.00 | 0.00 | 0.00 | 60 | 1012.8 |
| 20260906041652 | 86 | 91 | 0.9 | 3.5 | 0.00 | 0.00 | 0.00 | 60 | 1012.5 |
| 20260906041147 | 86 | 145 | 1.7 | 4.3 | 0.00 | 0.00 | 0.00 | 59 | 1012.7 |
| 20260906040643 | 86 | 181 | 1.7 | 2.6 | 0.00 | 0.00 | 0.00 | 59 | 1012.8 |
| 20260906040138 | 86 | 213 | 1.7 | 2.6 | 0.00 | 0.00 | 0.00 | 58 | 1012.7 |
| 20260906035633 | 87 | 167 | 4.3 | 5.2 | 0.00 | 0.00 | 0.00 | 58 | 1012.8 |
| 20260906035129 | 87 | 204 | 4.3 | 4.3 | 0.00 | 0.00 | 0.00 | 58 | 1012.8 |
| 20260906034630 | 86 | 189 | 2.6 | 5.2 | 0.00 | 0.00 | 0.00 | 58 | 1012.9 |
| 20260906034124 | 86 | 224 | 1.7 | 2.6 | 0.00 | 0.00 | 0.00 | 59 | 1012.8 |
| 20260906033620 | 87 | 150 | 1.7 | 3.5 | 0.00 | 0.00 | 0.00 | 58 | 1012.8 |
| 20260906033120 | 87 | 44 | 1.7 | 3.5 | 0.00 | 0.00 | 0.00 | 58 | 1012.8 |
| 20260906032617 | 87 | 202 | 0.0 | 3.5 | 0.00 | 0.00 | 0.00 | 58 | 1012.9 |
| 20260906032116 | 87 | 167 | 0.0 | 2.6 | 0.00 | 0.00 | 0.00 | 57 | 1012.9 |
| 20260906031612 | 87 | 201 | 2.6 | 4.3 | 0.00 | 0.00 | 0.00 | 56 | 1012.8 |
| 20260906031107 | 87 | 145 | 2.6 | 4.3 | 0.00 | 0.00 | 0.00 | 56 | 1012.8 |
| 20260906030606 | 87 | 134 | 1.7 | 3.5 | 0.00 | 0.00 | 0.00 | 56 | 1012.8 |
| 20260906030101 | 88 | 155 | 1.7 | 4.3 | 0.00 | 0.00 | 0.00 | 55 | 1012.7 |
| 20260906025555 | 88 | 220 | 5.2 | 5.2 | 0.00 | 0.00 | 0.00 | 55 | 1012.7 |
| 20260906025054 | 88 | 182 | 1.7 | 4.3 | 0.00 | 0.00 | 0.00 | 54 | 1012.7 |
| 20260906024549 | 89 | 197 | 2.6 | 7.8 | 0.00 | 0.00 | 0.00 | 53 | 1012.6 |
| 20260906024043 | 89 | 159 | 1.7 | 5.2 | 0.00 | 0.00 | 0.00 | 53 | 1012.4 |
| 20260906023540 | 89 | 185 | 1.7 | 2.6 | 0.00 | 0.00 | 0.00 | 52 | 1012.5 |
| 20260906023034 | 90 | 164 | 1.7 | 3.5 | 0.00 | 0.00 | 0.00 | 51 | 1012.5 |
| 20260906022530 | 90 | 198 | 2.6 | 7.0 | 0.00 | 0.00 | 0.00 | 51 | 1012.0 |
| 20260906022025 | 90 | 199 | 4.3 | 7.8 | 0.00 | 0.00 | 0.00 | 50 | 1012.1 |
| 20260906021520 | 91 | 349 | 0.0 | 3.5 | 0.00 | 0.00 | 0.00 | 50 | 1012.1 |
| 20260906021014 | 91 | 127 | 1.7 | 5.2 | 0.00 | 0.00 | 0.00 | 49 | 1011.9 |
| 20260906020514 | 91 | 149 | 1.7 | 4.3 | 0.00 | 0.00 | 0.00 | 49 | 1012.0 |
| 20260906020013 | 91 | 130 | 0.0 | 4.3 | 0.00 | 0.00 | 0.00 | 47 | 1012.0 |
| 20260906015512 | 91 | 147 | 1.7 | 1.7 | 0.00 | 0.00 | 0.00 | 46 | 1012.1 |
| 20260906015007 | 91 | 55 | 0.0 | 1.7 | 0.00 | 0.00 | 0.00 | 45 | 1011.8 |
| 20260906014502 | 91 | 129 | 0.0 | 0.9 | 0.00 | 0.00 | 0.00 | 45 | 1011.6 |
| 20260906013957 | 91 | 99 | 0.0 | 1.7 | 0.00 | 0.00 | 0.00 | 44 | 1011.6 |
| 20260906013453 | 92 | 93 | 0.9 | 1.7 | 0.00 | 0.00 | 0.00 | 44 | 1011.6 |
| 20260906012948 | 92 | 78 | 1.7 | 3.5 | 0.00 | 0.00 | 0.00 | 43 | 1011.2 |
| 20260906012442 | 92 | 83 | 0.9 | 2.6 | 0.00 | 0.00 | 0.00 | 43 | 1011.3 |
| 20260906011942 | 92 | 105 | 2.6 | 2.6 | 0.00 | 0.00 | 0.00 | 43 | 1011.5 |
| 20260906011437 | 93 | 98 | 0.0 | 3.5 | 0.00 | 0.00 | 0.00 | 42 | 1011.2 |
| 20260906010932 | 93 | 108 | 0.9 | 3.5 | 0.00 | 0.00 | 0.00 | 42 | 1011.2 |
| 20260906010428 | 93 | 98 | 1.7 | 2.6 | 0.00 | 0.00 | 0.00 | 42 | 1011.2 |
| 20260906005924 | 93 | 98 | 2.6 | 2.6 | 0.00 | 0.00 | 0.00 | 41 | 1011.1 |
| 20260906005423 | 94 | 127 | 2.6 | 3.5 | 0.00 | 0.00 | 0.00 | 41 | 1011.0 |
| 20260906004922 | 94 | 97 | 0.9 | 2.6 | 0.00 | 0.00 | 0.00 | 41 | 1011.1 |
| 20260906004416 | 94 | 106 | 2.6 | 4.3 | 0.00 | 0.00 | 0.00 | 40 | 1011.1 |
| 20260906003912 | 95 | 92 | 1.7 | 2.6 | 0.00 | 0.00 | 0.00 | 40 | 1010.9 |
| 20260906003407 | 95 | 95 | 1.7 | 4.3 | 0.00 | 0.00 | 0.00 | 39 | 1011.1 |
| 20260906002902 | 96 | 107 | 4.3 | 6.1 | 0.00 | 0.00 | 0.00 | 38 | 1010.9 |
| 20260906002401 | 96 | 112 | 1.7 | 3.5 | 0.00 | 0.00 | 0.00 | 38 | 1011.0 |
| 20260906001852 | 97 | 112 | 0.9 | 3.5 | 0.00 | 0.00 | 0.00 | 37 | 1011.0 |
| 20260906001348 | 97 | 224 | 0.9 | 6.1 | 0.00 | 0.00 | 0.00 | 37 | 1011.1 |
| 20260906000843 | 97 | 144 | 3.5 | 4.3 | 0.00 | 0.00 | 0.00 | 37 | 1011.0 |
| 20260906000342 | 98 | 84 | 3.5 | 4.3 | 0.00 | 0.00 | 0.00 | 36 | 1011.1 |
| 20260905235837 | 98 | 65 | 0.0 | 1.7 | 0.00 | 0.00 | 0.00 | 36 | 1010.8 |
| 20260905235337 | 97 | 129 | 3.5 | 4.3 | 0.00 | 0.00 | 0.00 | 36 | 1010.9 |
| 20260905234832 | 98 | 71 | 4.3 | 4.3 | 0.00 | 0.00 | 0.00 | 36 | 1010.7 |
| 20260905234327 | 98 | 106 | 3.5 | 5.2 | 0.00 | 0.00 | 0.00 | 36 | 1010.8 |
| 20260905233822 | 98 | 83 | 3.5 | 5.2 | 0.00 | 0.00 | 0.00 | 36 | 1010.6 |
| 20260905233317 | 98 | 116 | 2.6 | 2.6 | 0.00 | 0.00 | 0.00 | 36 | 1010.6 |
| 20260905232816 | 98 | 172 | 0.9 | 7.8 | 0.00 | 0.00 | 0.00 | 36 | 1010.8 |
| 20260905232313 | 99 | 115 | 2.6 | 3.5 | 0.00 | 0.00 | 0.00 | 36 | 1010.7 |
| 20260905231808 | 98 | 66 | 1.7 | 5.2 | 0.00 | 0.00 | 0.00 | 36 | 1010.7 |